Home   Weather   Erkelenz   Past weeks

Flag for Germany Past Weather in Erkelenz, North Rhine-Westphalia, Germany — Yesterday and Last 2 Weeks

48 °F

Drizzle. Fog.

Feels Like: 48 °F
Forecast: 50 / 57 °F
Wind: No wind

Location: Monchengladbach Airport

Current Time: Oct 27, 2016 at 9:15:09 AM

Latest Report: Oct 27, 2016 at 8:20 AM

Visibility: 2 mi

Pressure: 30.48 "Hg

Humidity: 100%

Dew Point: 48 °F

Location of ErkelenzLocation

Past Weather in Erkelenz — Graph


Erkelenz Temperature Yesterday

Maximum temperature yesterday: 54 °F (at 1:20 PM)
Minimum temperature yesterday: 46 °F (at 7:50 AM)
Average temperature yesterday: 50 °F

High & Low Weather Summary for the Past Weeks

High66 °F (Oct 16, 3:20 PM)100% (Oct 15, 8:50 AM)30.45 "Hg (Oct 15, 8:50 AM)
Low37 °F (Oct 23, 7:50 AM)55% (Oct 13, 2:50 PM)29.68 "Hg (Oct 14, 7:50 PM)
Average50 °F83%30.02 "Hg
* Reported Oct 12 7:50 AM — Oct 27 7:50 AM, Erkelenz, Weather by CustomWeather, © 2016

Note: Actual official high and low records may vary slightly from our data, if they occured in-between our weather recording intervals... More about our weather records


Erkelenz Weather History for the Previous 24 Hours

Scroll right to see more
Time TempWeatherWind HumidityBarometerVisibility
7:50 AM
Thu, Oct 27
46 °FDrizzle. Fog.No wind100%30.45 "Hg2 mi
7:50 PM
Wed, Oct 26
46 °FPassing clouds.No wind93%30.39 "Hg4 mi
7:20 PM46 °FPassing clouds.1 mph93%30.39 "Hg4 mi
6:50 PM48 °FPartly cloudy.No wind87%30.39 "Hg4 mi
6:20 PM52 °FPassing clouds.1 mph77%30.39 "Hg4 mi
5:50 PM50 °FClear.2 mph82%30.39 "Hg4 mi
5:20 PM52 °FPassing clouds.3 mph77%30.39 "Hg4 mi
4:50 PM52 °FPassing clouds.2 mph77%30.39 "Hg4 mi
4:20 PM52 °FPassing clouds.5 mph72%30.39 "Hg4 mi
3:50 PM54 °FPassing clouds.5 mph72%30.39 "Hg3 mi
3:20 PM54 °FPassing clouds.3 mph72%30.39 "Hg4 mi
2:50 PM52 °FPassing clouds.6 mph77%30.39 "Hg4 mi
2:20 PM54 °FPassing clouds.5 mph72%30.39 "Hg4 mi
1:50 PM52 °FPassing clouds.5 mph72%30.39 "Hg4 mi
1:20 PM54 °FPassing clouds.3 mph72%30.39 "Hg4 mi
12:50 PM52 °FPassing clouds.5 mph77%30.39 "Hg4 mi
12:20 PM52 °FPassing clouds.No wind72%30.39 "Hg3 mi
11:50 AM52 °FFog.1 mph77%30.39 "Hg3 mi
11:20 AM50 °FFog.2 mph76%30.39 "Hg3 mi
10:50 AM50 °FFog.No wind88%30.39 "Hg3 mi
10:20 AM50 °FFog.No wind88%30.39 "Hg2 mi
9:50 AM48 °FFog.2 mph94%30.36 "Hg2 mi
9:20 AM48 °FFog.No wind94%30.36 "Hg2 mi
Weather by CustomWeather, © 2016

See weather overviewHow to use our weather pages